Letzte Messung
Zeitpunkt Temperatur Luftfeuchte Luftdruck
2020-10-27 07:10:07 9.08 ℃ 100 % 1003.81 hPa

Zeitpunkt Temperatur Luftfeuchte Luftdruck
2020-10-27 07:10:07 9.08 ℃ 100 % 1003.81 hPa
2020-10-27 07:00:07 8.85 ℃ 100 % 1003.75 hPa
2020-10-27 06:50:07 8.55 ℃ 100 % 1003.59 hPa
2020-10-27 06:40:07 8.23 ℃ 100 % 1003.54 hPa
2020-10-27 06:30:07 7.92 ℃ 100 % 1003.55 hPa
2020-10-27 06:20:07 7.91 ℃ 100 % 1003.51 hPa
2020-10-27 06:10:07 7.89 ℃ 100 % 1003.52 hPa
2020-10-27 06:00:07 7.81 ℃ 100 % 1003.54 hPa
2020-10-27 05:50:07 7.77 ℃ 100 % 1003.51 hPa
2020-10-27 05:40:07 7.68 ℃ 100 % 1003.5 hPa
2020-10-27 05:30:07 7.59 ℃ 100 % 1003.48 hPa
2020-10-27 05:20:07 7.44 ℃ 100 % 1003.47 hPa
2020-10-27 05:10:07 7.21 ℃ 100 % 1003.42 hPa
2020-10-27 05:00:07 7.08 ℃ 100 % 1003.32 hPa
2020-10-27 04:50:07 6.96 ℃ 100 % 1003.21 hPa
2020-10-27 04:40:07 6.9 ℃ 100 % 1003.15 hPa
2020-10-27 04:30:07 6.92 ℃ 100 % 1003.08 hPa
2020-10-27 04:20:08 6.88 ℃ 100 % 1003.04 hPa
2020-10-27 04:10:07 6.91 ℃ 100 % 1003.08 hPa
2020-10-27 04:00:07 6.8 ℃ 100 % 1003.08 hPa
2020-10-27 03:50:08 6.85 ℃ 100 % 1003.1 hPa
2020-10-27 03:40:07 6.94 ℃ 100 % 1003.09 hPa
2020-10-27 03:30:08 6.96 ℃ 100 % 1003.14 hPa
2020-10-27 03:20:08 6.93 ℃ 100 % 1003.23 hPa
2020-10-27 03:10:08 6.88 ℃ 100 % 1003.22 hPa
2020-10-27 03:00:08 6.83 ℃ 100 % 1003.19 hPa
2020-10-27 02:50:08 6.92 ℃ 100 % 1003.18 hPa
2020-10-27 02:40:08 6.96 ℃ 100 % 1003.18 hPa
2020-10-27 02:30:08 6.98 ℃ 100 % 1003.21 hPa
2020-10-27 02:20:08 7.13 ℃ 100 % 1003.16 hPa
2020-10-27 02:10:08 7.15 ℃ 100 % 1003.12 hPa
2020-10-27 02:00:08 7.31 ℃ 100 % 1003.06 hPa
2020-10-27 01:50:08 7.42 ℃ 100 % 1003.03 hPa
2020-10-27 01:40:08 7.46 ℃ 100 % 1002.99 hPa
2020-10-27 01:30:08 7.54 ℃ 100 % 1003.02 hPa
2020-10-27 01:20:08 7.57 ℃ 100 % 1003.05 hPa
Durchschnitt 7.39 ℃ 100 % 1003.28 hPa

weatherino

Wetterdaten aus der Harmsstraße 54 in 24114 Kiel (4. OG, außen), die per BME280 und einem ESP-32 erhoben werden.

Unter https://wetter.janbpunkt.de/weather.xml steht eine entsprechende XML bereit, die das jüngste Messergebnis enthält.

Da der weatherino ab und zu ausfällt/gewartet wird, können Messpunkte fehlen.

Mehr zu dem Projekt findet man hier.

SSL, keine Cookies, keine IP-Adress-Speicherung, keine Verarbeitung von personenbezogenen Daten

Impressum

Extremwerte

Nachfolgend die Extremwerte seit Aufzeichnung.

BezeichnungWertZeitpunkt
Niedrigste Temperatur-0.99 ℃2020-03-23 06:17:03
Höchste Temperatur30.87 ℃2020-08-06 16:22:59
Niedrigster Luftdruck984.55 hPa2020-02-29 18:47:55
Höchster Luftdruck1042.34 hPa2020-03-23 07:47:03
Niedrigste Luftfeuchtigkeit21.35 %2020-03-25 15:06:57
Höchste Luftfeuchtigkeit100 %2020-10-27 07:10:07